Location: Basses Si�yes
(44.0835°N, 6.2037°E)
Time: 04:12:32
(UTC+00:00)

DMSP B5D1-3 - Pass Details

Date: 27 February 2020
Orbit: 768 x 780 km, 98.5° (Epoch: 09 April)

Event Time Altitude Azimuth Distance (km) Brightness Sun altitude
Rises 18:14:04 0° 15° (NNE) 3,268 7.6 -10.5°
Reaches altitude 10° 18:16:24 10° 18° (NNE) 2,338 6.8 -10.9°
Maximum altitude 18:21:33 71° 103° (ESE) 824 4.5 -11.8°
Drops below altitude 10° 18:26:40 10° 187° (S) 2,326 7.1 -12.7°
Sets 18:28:59 0° 190° (S) 3,250 7.9 -13.1°
